Chippewa, MI

11:11 AM EST on November 18, 2019 (GMT -0500)
Chippewa County International

Weather History for KCIU - October, 2019

Change the Weather History Date:

Wednesday, October 23, 2019

  Actual Average Record
Temperature  
Mean Temperature 42 °F -  
Max Temperature 46 °F 48 °F 68 °F (1998)
Min Temperature 39 °F 29 °F 21 °F (2002)
Degree Days  
Heating Degree Days 23    
Moisture  
Dew Point 38 °F    
Average Humidity 85    
Maximum Humidity 100    
Minimum Humidity 65    
Precipitation  
Precipitation 0.05 in - - ()
Sea Level Pressure  
Sea Level Pressure 29.64 in    
Wind  
Wind Speed 6 mph ()    
Max Wind Speed 14 mph    
Max Gust Speed 23 mph    
Visibility 9.8 miles    
Events Rain    
Averages and records for this station are not official NWS values.
T = Trace of Precipitation, MM = Missing Value Source: Averaged Metar Reports

Daily Weather History Graph

Daily Weather History Graph

Search for Another Location

Airport or City:

Astronomy

Oct. 23, 2019 Rise Set
Actual Time 8:05 AM EDT 6:37 PM EDT
Civil Twilight 7:35 AM EDT 7:08 PM EDT
Nautical Twilight 7:00 AM EDT 7:43 PM EDT
Astronomical Twilight 6:25 AM EDT 8:18 PM EDT
Moon 1:58 AM EDT (10/23) 4:50 PM EDT (10/23)
Length of Visible Light 11h 33m
Length of Day
10h 32m
Waning Crescent, 27% of the Moon is Illuminated
Oct 23
Waning Crescent
Oct 27
New
Nov 4
First Quarter
Nov 12
Full
Nov 19
Last Quarter

Hourly Weather History & Observations

Time (EDT) Temp. Windchill Dew Point Humidity Pressure Visibility Wind Dir Wind Speed Gust Speed Precip Events Conditions
12:23 AM 44.6 °F 41.4 °F 44.6 °F 100% 29.45 in 9.0 mi SSW 5.8 mph - 0.00 in Rain Light Rain
12:40 AM 44.6 °F 40.7 °F 42.8 °F 93% 29.45 in 6.0 mi SSW 6.9 mph - 0.02 in Rain Light Rain
12:56 AM 44.1 °F 41.5 °F 43.0 °F 96% 29.46 in 7.0 mi Variable 4.6 mph - 0.02 in Rain Light Rain
1:11 AM 44.6 °F 41.4 °F 42.8 °F 93% 29.45 in 10.0 mi Variable 5.8 mph - 0.00 in   Overcast
1:56 AM 44.1 °F 40.8 °F 43.0 °F 96% 29.47 in 10.0 mi Variable 5.8 mph - 0.02 in Rain Light Rain
2:22 AM 44.6 °F 42.2 °F 42.8 °F 93% 29.47 in 10.0 mi Variable 4.6 mph - 0.00 in   Overcast
2:36 AM 42.8 °F 39.3 °F 42.8 °F 100% 29.47 in 10.0 mi SW 5.8 mph - 0.00 in Rain Light Rain
2:46 AM 42.8 °F 40.1 °F 42.8 °F 100% 29.47 in 10.0 mi Variable 4.6 mph - 0.00 in Rain Light Rain
2:49 AM 42.8 °F 39.3 °F 42.8 °F 100% 29.47 in 10.0 mi SSW 5.8 mph - 0.00 in Rain Light Rain
2:56 AM 43.0 °F 41.3 °F 42.1 °F 97% 29.49 in 10.0 mi Variable 3.5 mph - 0.00 in Rain Light Rain
3:36 AM 42.8 °F 39.3 °F 42.8 °F 100% 29.49 in 9.0 mi Variable 5.8 mph - 0.01 in Rain Light Rain
3:56 AM 43.0 °F 39.5 °F 42.1 °F 97% 29.50 in 10.0 mi WSW 5.8 mph - 0.01 in Rain Light Rain
4:25 AM 42.8 °F 40.1 °F 41.0 °F 93% 29.49 in 10.0 mi SW 4.6 mph - 0.00 in Rain Light Rain
4:56 AM 42.1 °F 38.4 °F 39.9 °F 92% 29.52 in 10.0 mi SW 5.8 mph - 0.00 in   Overcast
5:42 AM 42.8 °F 40.1 °F 39.2 °F 87% 29.52 in 10.0 mi SW 4.6 mph - N/A   Overcast
5:56 AM 41.0 °F 38.0 °F 39.9 °F 96% 29.54 in 10.0 mi SW 4.6 mph - N/A   Overcast
6:56 AM 41.0 °F 36.4 °F 39.0 °F 93% 29.56 in 10.0 mi WSW 6.9 mph - N/A   Overcast
7:56 AM 41.0 °F 36.4 °F 37.9 °F 89% 29.58 in 10.0 mi WSW 6.9 mph - N/A   Overcast
8:56 AM 41.0 °F 35.8 °F 37.9 °F 89% 29.60 in 10.0 mi WSW 8.1 mph - N/A   Overcast
9:56 AM 41.0 °F 36.4 °F 37.9 °F 89% 29.63 in 10.0 mi WSW 6.9 mph - N/A   Overcast
10:56 AM 42.1 °F 36.1 °F 36.0 °F 79% 29.65 in 10.0 mi West 10.4 mph 19.6 mph N/A   Overcast
11:56 AM 43.0 °F 36.8 °F 36.0 °F 76% 29.68 in 10.0 mi WSW 11.5 mph 21.9 mph N/A   Overcast
12:32 PM 44.6 °F 38.1 °F 35.6 °F 71% 29.69 in 10.0 mi West 13.8 mph 20.7 mph N/A   Overcast
12:39 PM 44.6 °F 38.4 °F 35.6 °F 71% 29.69 in 10.0 mi WSW 12.7 mph 21.9 mph N/A   Overcast
12:46 PM 44.6 °F 38.8 °F 35.6 °F 71% 29.69 in 10.0 mi West 11.5 mph 21.9 mph N/A   Overcast
12:56 PM 44.1 °F 38.6 °F 35.1 °F 71% 29.71 in 10.0 mi West 10.4 mph 23.0 mph N/A   Overcast
1:56 PM 45.0 °F 40.1 °F 35.1 °F 68% 29.73 in 10.0 mi West 9.2 mph - N/A   Overcast
2:18 PM 44.6 °F 38.4 °F 35.6 °F 71% 29.72 in 10.0 mi West 12.7 mph 18.4 mph N/A   Overcast
2:56 PM 45.0 °F 39.3 °F 34.0 °F 65% 29.74 in 10.0 mi West 11.5 mph - N/A   Overcast
3:56 PM 45.0 °F 38.5 °F 35.1 °F 68% 29.77 in 10.0 mi West 13.8 mph 19.6 mph N/A   Overcast
4:56 PM 45.0 °F 39.7 °F 34.0 °F 65% 29.81 in 10.0 mi West 10.4 mph 18.4 mph N/A   Overcast
5:56 PM 45.0 °F 40.6 °F 35.1 °F 68% 29.83 in 10.0 mi West 8.1 mph - N/A   Overcast
6:56 PM 44.1 °F 40.8 °F 35.1 °F 71% 29.86 in 10.0 mi West 5.8 mph - N/A   Overcast
7:56 PM 41.0 °F 38.0 °F 35.1 °F 79% 29.90 in 10.0 mi West 4.6 mph - N/A   Mostly Cloudy
8:56 PM 41.0 °F 37.1 °F 35.1 °F 79% 29.92 in 10.0 mi West 5.8 mph - N/A   Overcast
9:56 PM 39.9 °F 36.7 °F 35.1 °F 83% 29.93 in 10.0 mi South 4.6 mph - N/A   Scattered Clouds
10:56 PM 39.9 °F - 35.1 °F 83% 29.94 in 10.0 mi Calm Calm - N/A   Mostly Cloudy
11:56 PM 39.9 °F 37.8 °F 35.1 °F 83% 29.96 in 10.0 mi WSW 3.5 mph - N/A   Overcast